Powrót do katalogu

COSMOS 2251 DEB

AktywnyLEO
NORAD 47074·DEBRIS·🇷🇺 Russia

Wystrzelony Jun 16, 1993 z Plesetsk Cosmodrome

Loading…

Następne Przeloty (najbliższe 24 godziny)

TLE

ŚwieżeSource: Space-Track

Epoka: Sep 14, 2026, 11:51 UTC

1 47074U 93036BYE 26257.49385039  .00002857  00000-0  85308-3 0  9995
2 47074  74.0916 163.1792 0138835 121.4288  51.8995 14.37961353 66432

Śledź COSMOS 2251 DEB w czasie rzeczywistym z AllMySat

Download on the App Store